Regional Weather Roundup
Issued by NWS Albany, NY

Home | Current Version | Previous Version | Graphics & Text | Print | Product List | Glossary On
Versions: 1 2 3 4 5 6 7 8 9 10 11 12 13 14 15 16 17 18 19 20 21 22 23 24 25 26 27 28 29 30 31 32 33 34 35 36 37 38 39 40 41 42 43 44 45 46 47 48 49 50
235
ASUS41 KALY 291910
RWRALY

NEW YORK STATE HOURLY WEATHER ROUNDUP
NATIONAL WEATHER SERVICE ALBANY NY
300 PM EDT SUN MAY 29 2016

NOTE: "FAIR" INDICATES FEW OR NO CLOUDS BELOW 12,000 FEET WITH NO
SIGNIFICANT WEATHER AND/OR NO OBSTRUCTIONS TO VISIBILITY.

NYZ032-033-038>043-046>054-057>066-NYZ062>081-082-084-292000-
EAST


CITY           SKY/WX    TMP DP  RH WIND       PRES   REMARKS
ALBANY         CLOUDY    86  68  54 S13       30.02F
GLENS FALLS    CLOUDY    86  66  51 SW5       30.01F
POUGHKEEPSIE   MOSUNNY   91  65  41 S9G16     30.04F HX  93
NEWBURGH       MOSUNNY   88  70  55 SW12      30.09S HX  92
MONTGOMERY     MOSUNNY   88  68  51 S10       30.05F HX  91
WHITE PLAINS   SUNNY     83  61  47 SE10G17   30.10F
ISLIP          PTSUNNY   77  65  66 S13       30.13F
NEW YORK CITY  PTSUNNY   84  56  38 SE17      30.10F
CENTRAL PARK   SUNNY     82  54  37 VRB7      30.13S
$$

NYZ005>009-017-018-044>046-055-056-292000-
CENTRAL


CITY           SKY/WX    TMP DP  RH WIND       PRES   REMARKS
FULTON         CLOUDY    83  70  64 NW7       30.02F
SYRACUSE       TSTM      70  69  97 N9G25     30.05R VSB 1/2
ROME           CLOUDY    73  69  87 SW5       30.04F
ELMIRA         CLOUDY    91  61  36 SW14G20   30.02S HX  91
BINGHAMTON     MOSUNNY   84  65  52 VRB7      30.08F
MONTICELLO     MOSUNNY   86  66  51 S13G18    30.11F
$$

NYZ026>034-041>043-087-292000-
NORTH


CITY           SKY/WX    TMP DP  RH WIND       PRES   REMARKS
WATERTOWN      CLOUDY    81  66  60 W13       29.99F
FORT DRUM      NOT AVBL
MASSENA        MOSUNNY   85  65  51 NE7       29.98F
SARANAC LAKE   PTSUNNY   76  62  62 MISG      30.05F THUNDER
PLATTSBURGH    TSTM      72  67  84 S16G28    30.04R
$$

NYZ001>004-010>016-019>021-085-292000-
WEST


CITY           SKY/WX    TMP DP  RH WIND       PRES   REMARKS
NIAGARA FALLS  CLOUDY    85  63  47 SW10      30.01F
BUFFALO        PTSUNNY   85  64  49 W15G21    30.02F
DUNKIRK        PTSUNNY   80  64  58 W13       30.04F
WELLSVILLE     MOSUNNY   74  64  71 VRB6      30.13F
ROCHESTER      CLOUDY    87  66  49 CALM      30.01F
PENN YAN       HVY RAIN  68  63  84 VRB6      30.11R VSB 1/2
$$

             KEY
       WCI = WIND CHILL INDEX
       VSB = VISIBILITY
       HX  = HEAT INDEX
$$




USA.gov is the U.S. government's official web portal to all federal, state and local government web resources and services.